Tracking 19854 objects as of 22-Sep-2019
HD Live streaming from Space Station
objects crossing your sky now

FENGYUN 1C DEB

Track FENGYUN 1C DEB now!
10-day predictions


NORAD ID: 31058
Int'l Code: 1999-025BFC
Perigee: 626.1 km
Apogee: 825.4 km
Inclination: 99.6 °
Period: 99.2 minutes
Semi major axis: 7096 km
RCS: 0.0094 m2 (small)
Launch date: May 10, 1999
Source: People's Republic of China (PRC)
Launch site: Taiyaun Space Center, China (TSC)

Note: This is SATELLITE DEBRIS
aabbcc
Your satellite tracking list
Your tracking list is empty




NASA's NSSDC Master Catalog

Two Line Element Set (TLE):
1 31058U 99025BFC 19258.60915943  .00000372  00000-0  94725-4 0  9997
2 31058  99.5591 190.4180 0140457  72.2711 289.3754 14.52158632663168
Source of the keplerian elements: AFSPC